Voltar ao catálogo

HEBI-1

AtivoCiênciaSSO
NORAD 56154·PAYLOAD·🇨🇳 China
Este nome de satélite ainda não foi confirmado por fontes oficiais.

Lançado Mar 30, 2023 de Taiyuan Satellite Launch Center

Loading…

Próximas Passagens (próximas 24 horas)

TLE

AtualizadoSource: Space-Track

Época: Sep 14, 2026, 08:41 UTC

1 56154U 23047B   26257.36188135  .00002884  00000-0  16109-3 0  9996
2 56154  97.5007  83.2187 0001563  94.1455 265.9956 15.14308826191295

Acompanhe HEBI-1 em tempo real com AllMySat

Download on the App Store